| time (UTC) | temp F | wind direction | speed MPH | gust MPH | rain 1hr in | rain 24hr in | rain mn in | humidity % | barometer mb |
| 20260906183024 | 90 | 197 | 0.0 | 0.0 | 0.00 | 0.91 | 0.01 | 65 | 1007.2 |
| 20260906181537 | 90 | 197 | 0.0 | 0.0 | 0.00 | 0.91 | 0.01 | 65 | 1007.5 |
| 20260906180037 | 90 | 197 | 0.0 | 0.0 | 0.00 | 0.91 | 0.01 | 67 | 1007.7 |
| 20260906174530 | 90 | 197 | 0.0 | 0.0 | 0.00 | 0.91 | 0.01 | 66 | 1007.6 |
| 20260906173027 | 89 | 198 | 0.0 | 0.0 | 0.00 | 0.91 | 0.01 | 72 | 1007.9 |
| 20260906171524 | 87 | 198 | 0.0 | 0.0 | 0.00 | 0.91 | 0.01 | 75 | 1008.0 |
| 20260906170023 | 85 | 198 | 0.0 | 0.0 | 0.00 | 0.91 | 0.01 | 76 | 1008.1 |
| 20260906164521 | 84 | 198 | 0.0 | 0.0 | 0.00 | 0.91 | 0.01 | 83 | 1008.3 |
| 20260906163022 | 82 | 198 | 0.0 | 0.0 | 0.00 | 0.91 | 0.01 | 85 | 1008.6 |
| 20260906161525 | 81 | 198 | 0.0 | 0.0 | 0.00 | 0.91 | 0.01 | 88 | 1008.7 |
| 20260906160031 | 80 | 198 | 0.0 | 0.0 | 0.00 | 0.91 | 0.01 | 90 | 1008.8 |
| 20260906154530 | 80 | 198 | 0.0 | 0.0 | 0.00 | 0.91 | 0.01 | 90 | 1008.9 |
| 20260906153035 | 79 | 198 | 0.0 | 0.0 | 0.00 | 0.91 | 0.01 | 91 | 1009.0 |
| 20260906151537 | 78 | 198 | 0.0 | 0.0 | 0.00 | 0.91 | 0.01 | 92 | 1008.8 |
| 20260906150042 | 78 | 198 | 0.0 | 0.0 | 0.00 | 0.91 | 0.01 | 94 | 1008.9 |
| 20260906144546 | 77 | 198 | 0.0 | 0.0 | 0.00 | 0.91 | 0.01 | 95 | 1008.9 |
| 20260906143050 | 77 | 198 | 0.0 | 0.0 | 0.00 | 0.91 | 0.01 | 95 | 1008.9 |
| 20260906141550 | 77 | 198 | 0.0 | 0.0 | 0.00 | 0.91 | 0.01 | 96 | 1009.0 |
| 20260906140054 | 76 | 198 | 0.0 | 0.0 | 0.00 | 0.91 | 0.01 | 99 | 1008.9 |
| 20260906134543 | 75 | 198 | 0.0 | 0.0 | 0.00 | 0.91 | 0.01 | 99 | 1008.8 |
| 20260906133114 | 75 | 198 | 0.0 | 0.0 | 0.00 | 0.91 | 0.01 | 100 | 1008.9 |
| 20260906131551 | 74 | 198 | 0.0 | 0.0 | 0.00 | 0.91 | 0.01 | 100 | 1009.0 |
| 20260906130106 | 73 | 198 | 0.0 | 0.0 | 0.00 | 0.91 | 0.01 | 99 | 1009.0 |
| 20260906124553 | 72 | 198 | 0.0 | 0.0 | 0.00 | 0.91 | 0.01 | 99 | 1008.8 |
| 20260906123049 | 71 | 198 | 0.0 | 0.0 | 0.00 | 0.91 | 0.01 | 99 | 1008.6 |
| 20260906121551 | 71 | 198 | 0.0 | 0.0 | 0.00 | 0.91 | 0.01 | 99 | 1008.5 |
| 20260906120059 | 71 | 198 | 0.0 | 0.0 | 0.00 | 0.91 | 0.01 | 99 | 1008.3 |
| 20260906114516 | 71 | 198 | 0.0 | 0.0 | 0.00 | 0.91 | 0.01 | 99 | 1008.2 |
| 20260906113013 | 71 | 198 | 0.0 | 0.0 | 0.00 | 0.91 | 0.01 | 99 | 1008.1 |
| 20260906111511 | 70 | 198 | 0.0 | 0.0 | 0.00 | 0.91 | 0.01 | 99 | 1008.3 |
| 20260906110015 | 70 | 198 | 0.0 | 0.0 | 0.00 | 0.91 | 0.01 | 98 | 1008.4 |
| 20260906104521 | 71 | 198 | 0.0 | 0.0 | 0.00 | 0.91 | 0.01 | 98 | 1008.4 |
| 20260906103019 | 71 | 198 | 0.0 | 0.0 | 0.00 | 0.91 | 0.01 | 99 | 1008.2 |
| 20260906101523 | 71 | 198 | 0.0 | 0.0 | 0.00 | 0.91 | 0.01 | 99 | 1008.2 |
| 20260906100026 | 71 | 198 | 0.0 | 0.0 | 0.01 | 0.91 | 0.01 | 99 | 1008.1 |
| 20260906094528 | 71 | 198 | 0.0 | 0.0 | 0.01 | 0.91 | 0.01 | 99 | 1008.2 |
| 20260906093028 | 70 | 198 | 0.0 | 0.0 | 0.01 | 0.91 | 0.01 | 99 | 1008.2 |
| 20260906091527 | 70 | 198 | 0.0 | 0.0 | 0.01 | 0.91 | 0.01 | 99 | 1008.1 |
| 20260906090026 | 70 | 198 | 0.0 | 0.0 | 0.00 | 0.90 | 0.00 | 98 | 1008.1 |
| 20260906084529 | 70 | 198 | 0.0 | 0.0 | 0.00 | 0.90 | 0.00 | 98 | 1008.0 |
| 20260906083035 | 70 | 198 | 0.0 | 0.0 | 0.00 | 0.90 | 0.00 | 98 | 1008.0 |
| 20260906081535 | 70 | 198 | 0.0 | 0.0 | 0.00 | 0.90 | 0.00 | 98 | 1007.9 |
| 20260906080039 | 70 | 198 | 0.0 | 0.0 | 0.00 | 0.90 | 0.00 | 98 | 1007.8 |
| 20260906074538 | 70 | 198 | 0.0 | 0.0 | 0.00 | 0.90 | 0.00 | 98 | 1007.9 |
| 20260906073041 | 70 | 198 | 0.0 | 0.0 | 0.00 | 0.90 | 0.00 | 98 | 1008.0 |
| 20260906071545 | 71 | 198 | 0.0 | 0.0 | 0.00 | 0.90 | 0.00 | 98 | 1008.0 |
| 20260906070054 | 71 | 198 | 0.0 | 0.0 | 0.00 | 0.90 | 0.00 | 98 | 1008.0 |
| 20260906064552 | 71 | 198 | 0.0 | 0.0 | 0.00 | 0.90 | 0.00 | 98 | 1007.9 |
| 20260906063053 | 71 | 198 | 0.0 | 0.0 | 0.00 | 0.90 | 0.00 | 98 | 1008.1 |
| 20260906061600 | 71 | 198 | 0.0 | 0.0 | 0.00 | 0.90 | 0.00 | 98 | 1008.3 |
| 20260906060059 | 71 | 198 | 0.0 | 0.0 | 0.00 | 0.90 | 0.00 | 98 | 1008.7 |
| 20260906054535 | 71 | 198 | 0.0 | 0.0 | 0.00 | 0.90 | 0.00 | 98 | 1008.6 |
| 20260906053020 | 71 | 198 | 0.0 | 0.0 | 0.00 | 0.90 | 0.00 | 98 | 1008.6 |
| 20260906051520 | 71 | 198 | 0.0 | 0.0 | 0.00 | 0.90 | 0.00 | 98 | 1008.8 |
| 20260906050004 | 71 | 198 | 0.0 | 0.0 | 0.00 | 0.90 | 0.00 | 98 | 1008.9 |
| 20260906044506 | 71 | 198 | 0.0 | 0.0 | 0.00 | 0.90 | 0.00 | 98 | 1008.9 |
| 20260906043016 | 71 | 198 | 0.0 | 0.0 | 0.00 | 0.90 | 0.00 | 98 | 1008.7 |
| 20260906041552 | 71 | 198 | 0.0 | 0.0 | 0.00 | 0.90 | 0.00 | 98 | 1008.4 |
| 20260906040118 | 72 | 198 | 0.0 | 0.0 | 0.00 | 0.90 | 0.90 | 98 | 1008.6 |
| 20260906034539 | 72 | 198 | 0.0 | 0.0 | 0.00 | 0.90 | 0.90 | 98 | 1008.8 |
| 20260906033038 | 72 | 198 | 0.0 | 0.0 | 0.00 | 0.90 | 0.90 | 98 | 1008.9 |
| 20260906031523 | 72 | 198 | 0.0 | 0.0 | 0.00 | 0.90 | 0.90 | 98 | 1009.1 |
| 20260906030026 | 72 | 198 | 0.0 | 0.0 | 0.00 | 0.90 | 0.90 | 98 | 1009.3 |
| 20260906024530 | 72 | 198 | 0.0 | 0.0 | 0.00 | 0.90 | 0.90 | 97 | 1009.3 |
| 20260906023028 | 72 | 198 | 0.0 | 0.0 | 0.00 | 0.90 | 0.90 | 97 | 1009.2 |
| 20260906021531 | 72 | 198 | 0.0 | 0.0 | 0.00 | 0.90 | 0.90 | 97 | 1009.3 |
| 20260906020034 | 72 | 198 | 0.0 | 0.0 | 0.00 | 0.90 | 0.90 | 97 | 1009.1 |
| 20260906014537 | 72 | 198 | 0.0 | 0.0 | 0.00 | 0.90 | 0.90 | 96 | 1009.1 |
| 20260906013047 | 72 | 198 | 0.0 | 0.0 | 0.00 | 0.90 | 0.90 | 96 | 1009.1 |
| 20260906011555 | 72 | 198 | 0.0 | 0.0 | 0.00 | 0.90 | 0.90 | 96 | 1009.0 |
| 20260906010005 | 72 | 198 | 0.0 | 0.0 | 0.00 | 0.90 | 0.90 | 96 | 1008.7 |
| 20260906004511 | 72 | 198 | 0.0 | 0.0 | 0.00 | 0.90 | 0.90 | 96 | 1008.2 |
| 20260906003017 | 72 | 198 | 0.0 | 0.0 | 0.00 | 0.90 | 0.90 | 96 | 1007.7 |
| 20260906001513 | 72 | 198 | 0.0 | 0.0 | 0.00 | 0.90 | 0.90 | 96 | 1007.4 |
| 20260906000015 | 72 | 198 | 0.0 | 0.0 | 0.00 | 0.90 | 0.90 | 96 | 1006.9 |
| 20260905234516 | 72 | 198 | 0.0 | 0.0 | 0.01 | 0.90 | 0.90 | 95 | 1006.3 |
| 20260905233017 | 72 | 198 | 0.0 | 0.0 | 0.28 | 0.90 | 0.90 | 94 | 1006.2 |
| 20260905231521 | 71 | 198 | 0.0 | 0.0 | 0.90 | 0.90 | 0.90 | 93 | 1006.7 |
| 20260905230020 | 72 | 198 | 0.0 | 0.0 | 0.90 | 0.90 | 0.90 | 89 | 1006.9 |
| 20260905224603 | 73 | 150 | 0.0 | 1.0 | 0.89 | 0.89 | 0.89 | 89 | 1007.8 |
| 20260905223026 | 77 | 333 | 0.0 | 8.0 | 0.56 | 0.56 | 0.61 | 87 | 1009.1 |
| 20260905221528 | 84 | 117 | 0.0 | 0.0 | 0.00 | 0.00 | 0.00 | 73 | 1007.1 |
| 20260905220032 | 92 | 145 | 0.0 | 0.0 | 0.00 | 0.00 | 0.00 | 61 | 1006.7 |
| 20260905214543 | 92 | 102 | 0.0 | 0.0 | 0.00 | 0.00 | 0.00 | 60 | 1005.9 |
| 20260905213042 | 92 | 102 | 0.0 | 0.0 | 0.00 | 0.00 | 0.00 | 58 | 1005.9 |
| 20260905211550 | 92 | 102 | 0.0 | 0.0 | 0.00 | 0.00 | 0.00 | 59 | 1005.9 |
| 20260905210053 | 92 | 102 | 0.0 | 0.0 | 0.00 | 0.00 | 0.00 | 60 | 1006.2 |
| 20260905204537 | 93 | 102 | 0.0 | 0.0 | 0.00 | 0.00 | 0.00 | 59 | 1006.5 |
| 20260905203037 | 93 | 102 | 0.0 | 0.0 | 0.00 | 0.00 | 0.00 | 59 | 1006.6 |
| 20260905201534 | 93 | 102 | 0.0 | 0.0 | 0.00 | 0.00 | 0.00 | 59 | 1006.8 |
| 20260905200036 | 94 | 102 | 0.0 | 0.0 | 0.00 | 0.00 | 0.00 | 55 | 1006.9 |
| 20260905194544 | 95 | 102 | 0.0 | 0.0 | 0.00 | 0.00 | 0.00 | 54 | 1007.1 |
| 20260905193042 | 96 | 102 | 0.0 | 0.0 | 0.00 | 0.00 | 0.00 | 56 | 1007.1 |
| 20260905191542 | 95 | 102 | 0.0 | 0.0 | 0.00 | 0.00 | 0.00 | 54 | 1007.3 |
| 20260905190044 | 95 | 102 | 0.0 | 0.0 | 0.00 | 0.00 | 0.00 | 54 | 1007.6 |
| 20260905184557 | 94 | 117 | 0.0 | 0.0 | 0.00 | 0.00 | 0.00 | 54 | 1007.9 |